KD9WYV Weather Reports


time (UTC)temp
C
wind
direction
speed
KPH
gust
KPH
rain 1hr
cm
rain 24hr
cm
rain mn
cm
humidity
%
barometer
mb
20260906060720 22 101 8.0 14.5 0.00 0.00 0.00 88 1015.8
20260906060218 22 120 4.8 6.4 0.00 0.00 0.00 88 1015.7
20260906055713 22 75 8.0 11.3 0.00 0.00 0.00 88 1015.6
20260906055208 22 79 0.0 1.6 0.00 0.00 0.00 90 1015.7
20260906054704 22 33 3.2 3.2 0.00 0.00 0.00 90 1015.6
20260906054204 22 338 3.2 4.8 0.00 0.00 0.00 90 1015.5
20260906053700 22 87 3.2 4.8 0.00 0.00 0.00 90 1015.5
20260906053155 22 59 9.7 11.3 0.00 0.00 0.00 89 1015.5
20260906052651 22 89 1.6 1.6 0.00 0.00 0.00 89 1015.4
20260906052147 23 63 8.0 11.3 0.00 0.00 0.00 87 1015.4
20260906051644 23 331 1.6 3.2 0.00 0.00 0.00 87 1015.4
20260906051143 23 102 1.6 1.6 0.00 0.00 0.00 87 1015.5
20260906050638 23 52 1.6 1.6 0.00 0.00 0.00 87 1015.2
20260906050133 23 58 1.6 3.2 0.00 0.00 0.00 87 1015.5
20260906045632 23 66 6.4 11.3 0.00 0.00 0.00 87 1015.3
20260906045127 23 75 1.6 1.6 0.00 0.00 0.00 87 1015.4
20260906044623 23 12 0.0 1.6 0.00 0.00 0.00 88 1015.4
20260906044118 23 2 1.6 1.6 0.00 0.00 0.00 88 1015.5
20260906043615 23 0 3.2 4.8 0.00 0.00 0.00 88 1015.4
20260906043110 23 9 3.2 4.8 0.00 0.00 0.00 89 1015.4
20260906042609 23 12 3.2 4.8 0.00 0.00 0.00 89 1015.4
20260906042103 23 100 8.0 11.3 0.00 0.00 0.00 88 1015.4
20260906041600 23 33 3.2 3.2 0.00 0.00 0.00 87 1015.3
20260906041055 23 74 8.0 9.7 0.00 0.00 0.00 87 1015.3
20260906040550 23 64 1.6 1.6 0.00 0.00 0.00 87 1015.1
20260906040045 23 36 6.4 9.7 0.00 0.00 0.00 88 1015.1
20260906035541 23 49 3.2 3.2 0.00 0.00 0.00 88 1015.1
20260906035037 23 88 3.2 4.8 0.00 0.00 0.00 89 1015.2
20260906034536 23 84 1.6 3.2 0.00 0.00 0.00 88 1015.2
20260906034031 23 83 4.8 6.4 0.00 0.00 0.00 89 1015.0
20260906033526 23 72 8.0 9.7 0.00 0.00 0.00 89 1015.1
20260906033022 23 82 6.4 6.4 0.00 0.00 0.00 89 1015.1
20260906032519 23 77 8.0 9.7 0.00 0.00 0.00 89 1015.2
20260906032018 23 79 3.2 4.8 0.00 0.00 0.00 89 1015.0
20260906031514 23 113 3.2 4.8 0.00 0.00 0.00 89 1015.1
20260906031010 23 54 3.2 4.8 0.00 0.00 0.00 89 1015.0
20260906030509 23 77 6.4 9.7 0.00 0.00 0.00 89 1014.7
20260906030008 23 33 3.2 4.8 0.00 0.00 0.00 88 1014.7
20260906025508 24 70 9.7 12.9 0.00 0.00 0.00 88 1015.1
20260906025007 24 101 6.4 6.4 0.00 0.00 0.00 87 1014.9
20260906024502 24 73 8.0 11.3 0.00 0.00 0.00 87 1014.7
20260906024002 24 124 8.0 11.3 0.00 0.00 0.00 87 1014.7
20260906023458 24 109 4.8 11.3 0.00 0.00 0.00 87 1014.7
20260906022953 24 102 9.7 12.9 0.00 0.00 0.00 87 1014.7
20260906022448 25 56 6.4 6.4 0.00 0.00 0.00 86 1014.6
20260906021944 25 57 8.0 9.7 0.00 0.00 0.00 86 1014.5
20260906021444 25 71 6.4 6.4 0.00 0.00 0.00 86 1014.3
20260906020938 25 90 8.0 11.3 0.00 0.00 0.00 86 1014.2
20260906020433 25 71 8.0 11.3 0.00 0.00 0.00 85 1014.4
20260906015933 25 50 6.4 9.7 0.00 0.00 0.00 85 1014.3
20260906015433 25 108 8.0 9.7 0.00 0.00 0.00 84 1014.4
20260906014932 25 106 9.7 12.9 0.00 0.00 0.00 83 1014.3
20260906014432 25 58 8.0 14.5 0.00 0.00 0.00 82 1014.1
20260906013928 25 107 16.1 17.7 0.00 0.00 0.00 82 1013.9
20260906013424 25 95 12.9 17.7 0.00 0.00 0.00 80 1014.0
20260906012919 25 66 4.8 4.8 0.00 0.00 0.00 79 1013.9
20260906012419 25 105 8.0 11.3 0.00 0.00 0.00 78 1013.5
20260906011918 25 75 3.2 3.2 0.00 0.00 0.00 78 1013.5
20260906011414 25 25 0.0 1.6 0.00 0.00 0.00 76 1013.5
20260906010909 25 61 6.4 6.4 0.00 0.00 0.00 76 1013.4
20260906010405 25 83 4.8 6.4 0.00 0.00 0.00 75 1013.3
20260906005901 25 20 1.6 1.6 0.00 0.00 0.00 75 1013.4
20260906005400 25 12 1.6 1.6 0.00 0.00 0.00 75 1013.5
20260906004858 25 66 3.2 4.8 0.00 0.00 0.00 74 1013.4
20260906004353 25 46 1.6 1.6 0.00 0.00 0.00 74 1013.3
20260906003848 26 13 0.0 1.6 0.00 0.00 0.00 74 1013.4
20260906003344 26 17 1.6 1.6 0.00 0.00 0.00 73 1013.1
20260906002839 26 49 0.0 1.6 0.00 0.00 0.00 72 1012.8
20260906002338 26 43 1.6 1.6 0.00 0.00 0.00 71 1012.8
20260906001834 26 353 1.6 1.6 0.00 0.00 0.00 72 1012.8
20260906001329 26 80 1.6 3.2 0.00 0.00 0.00 70 1012.8
20260906000825 27 3 0.0 1.6 0.00 0.00 0.00 70 1012.8
20260906000319 27 2 0.0 1.6 0.00 0.00 0.00 68 1012.9
20260905235819 27 10 0.0 1.6 0.00 0.00 0.00 68 1012.9
20260905235314 27 329 0.0 1.6 0.00 0.00 0.00 68 1012.9
20260905234809 27 1 1.6 1.6 0.00 0.00 0.00 69 1012.9
20260905234304 27 326 0.0 1.6 0.00 0.00 0.00 70 1013.0
20260905233800 26 50 1.6 1.6 0.00 0.00 0.00 71 1012.9
20260905233300 27 78 4.8 4.8 0.00 0.00 0.00 72 1012.9
20260905232759 27 71 1.6 3.2 0.00 0.00 0.00 72 1013.0
20260905232255 27 68 3.2 4.8 0.00 0.00 0.00 72 1013.2
20260905231751 27 328 1.6 1.6 0.00 0.00 0.00 73 1013.2
20260905231246 27 32 9.7 12.9 0.00 0.00 0.00 72 1013.4
20260905230742 27 64 6.4 9.7 0.00 0.00 0.00 72 1013.2
20260905230240 27 27 6.4 11.3 0.00 0.00 0.00 71 1013.1
20260905225739 27 112 6.4 9.7 0.00 0.00 0.00 70 1013.0
20260905225235 28 151 8.0 11.3 0.00 0.00 0.00 68 1013.3
20260905224734 28 88 8.0 11.3 0.00 0.00 0.00 67 1013.0
20260905224230 28 71 8.0 11.3 0.00 0.00 0.00 66 1012.9
20260905223726 30 9 12.9 17.7 0.00 0.00 0.00 63 1012.8
20260905223222 32 36 4.8 6.4 0.00 0.00 0.00 61 1012.5
20260905222718 32 293 9.7 14.5 0.00 0.00 0.00 59 1012.3
20260905222217 32 283 12.9 14.5 0.00 0.00 0.00 59 1012.3
20260905221713 32 301 9.7 11.3 0.00 0.00 0.00 58 1012.4
20260905221210 32 285 6.4 6.4 0.00 0.00 0.00 58 1012.2
20260905220705 32 317 6.4 9.7 0.00 0.00 0.00 57 1012.2
20260905220201 32 13 6.4 9.7 0.00 0.00 0.00 58 1012.5
20260905215700 32 289 11.3 12.9 0.00 0.00 0.00 58 1012.4
20260905215156 32 294 8.0 11.3 0.00 0.00 0.00 59 1012.4
20260905214652 32 310 9.7 12.9 0.00 0.00 0.00 58 1012.4
20260905214147 32 358 6.4 6.4 0.00 0.00 0.00 58 1012.2
20260905213642 32 313 4.8 4.8 0.00 0.00 0.00 60 1012.1
20260905213137 32 309 1.6 1.6 0.00 0.00 0.00 60 1012.3
20260905212633 32 308 4.8 4.8 0.00 0.00 0.00 61 1012.7
20260905212132 32 312 11.3 12.9 0.00 0.00 0.00 60 1012.6
20260905211627 31 36 6.4 6.4 0.00 0.00 0.00 60 1012.4
20260905211123 31 332 1.6 1.6 0.00 0.00 0.00 60 1012.4
20260905210619 31 284 3.2 4.8 0.00 0.00 0.00 60 1012.5
20260905210113 31 318 3.2 3.2 0.00 0.00 0.00 60 1012.6
20260905205613 32 304 9.7 11.3 0.00 0.00 0.00 58 1012.6
20260905205113 32 336 1.6 3.2 0.00 0.00 0.00 58 1012.6
20260905204612 33 295 6.4 6.4 0.00 0.00 0.00 55 1012.7
20260905204108 32 340 4.8 4.8 0.00 0.00 0.00 57 1012.8
20260905203608 32 324 3.2 4.8 0.00 0.00 0.00 58 1012.8
20260905203103 32 308 6.4 9.7 0.00 0.00 0.00 56 1012.7
20260905202558 32 321 6.4 6.4 0.00 0.00 0.00 56 1012.6
20260905202054 32 273 9.7 12.9 0.00 0.00 0.00 56 1012.8
20260905201549 32 283 11.3 14.5 0.00 0.00 0.00 55 1013.0
20260905201049 33 309 4.8 4.8 0.00 0.00 0.00 54 1012.8
20260905200544 33 289 6.4 6.4 0.00 0.00 0.00 53 1013.0
20260905200044 33 257 6.4 11.3 0.00 0.00 0.00 53 1013.1
20260905195538 34 278 12.9 20.9 0.00 0.00 0.00 51 1013.0
20260905195034 33 301 3.2 4.8 0.00 0.00 0.00 51 1013.0
20260905194533 33 308 9.7 11.3 0.00 0.00 0.00 53 1013.0
20260905194032 33 316 8.0 9.7 0.00 0.00 0.00 52 1013.0
20260905193527 33 305 3.2 4.8 0.00 0.00 0.00 52 1013.0
20260905193023 33 309 4.8 4.8 0.00 0.00 0.00 53 1013.0
20260905192518 33 317 4.8 9.7 0.00 0.00 0.00 53 1013.3
20260905192015 33 322 9.7 12.9 0.00 0.00 0.00 51 1013.2
20260905191513 33 323 6.4 9.7 0.00 0.00 0.00 50 1013.4
20260905191012 33 296 8.0 12.9 0.00 0.00 0.00 51 1013.3
20260905190510 33 290 9.7 14.5 0.00 0.00 0.00 51 1013.5
20260905190010 33 330 4.8 6.4 0.00 0.00 0.00 51 1013.3
20260905185504 33 322 4.8 6.4 0.00 0.00 0.00 51 1013.5
20260905185003 33 277 14.5 17.7 0.00 0.00 0.00 48 1013.6
20260905184458 33 239 12.9 14.5 0.00 0.00 0.00 50 1013.5
20260905183957 33 304 6.4 6.4 0.00 0.00 0.00 49 1013.6
20260905183456 32 348 8.0 11.3 0.00 0.00 0.00 51 1013.7
20260905182951 32 276 4.8 9.7 0.00 0.00 0.00 51 1013.9
20260905182451 32 286 4.8 4.8 0.00 0.00 0.00 52 1014.1
20260905181947 33 271 6.4 6.4 0.00 0.00 0.00 50 1014.1
20260905181447 33 237 8.0 9.7 0.00 0.00 0.00 49 1014.2
20260905180946 33 279 0.0 1.6 0.00 0.00 0.00 50 1014.1
20260905180441 32 226 6.4 6.4 0.00 0.00 0.00 50 1013.9
20260905175936 32 342 6.4 9.7 0.00 0.00 0.00 51 1014.0
20260905175435 32 264 4.8 6.4 0.00 0.00 0.00 51 1014.2
20260905174931 32 349 6.4 9.7 0.00 0.00 0.00 51 1014.0
20260905174426 32 235 6.4 6.4 0.00 0.00 0.00 51 1014.4
20260905173922 32 254 8.0 9.7 0.00 0.00 0.00 48 1014.3
20260905173418 32 306 3.2 4.8 0.00 0.00 0.00 50 1014.4
20260905172919 32 262 9.7 11.3 0.00 0.00 0.00 50 1014.5
20260905172416 31 321 3.2 3.2 0.00 0.00 0.00 51 1014.4
20260905171913 32 221 6.4 9.7 0.00 0.00 0.00 50 1014.6
20260905171409 32 255 3.2 3.2 0.00 0.00 0.00 50 1014.9
20260905170905 31 250 3.2 4.8 0.00 0.00 0.00 52 1014.5
20260905170401 31 166 3.2 4.8 0.00 0.00 0.00 54 1014.9
20260905165900 31 224 8.0 11.3 0.00 0.00 0.00 52 1015.1
20260905165356 31 267 1.6 1.6 0.00 0.00 0.00 54 1015.1
20260905164856 30 170 3.2 4.8 0.00 0.00 0.00 55 1015.3
20260905164351 31 80 3.2 4.8 0.00 0.00 0.00 53 1015.2
20260905163846 30 132 3.2 6.4 0.00 0.00 0.00 55 1015.3
20260905163343 29 112 3.2 4.8 0.00 0.00 0.00 56 1015.2
20260905162838 30 346 6.4 6.4 0.00 0.00 0.00 57 1015.3
20260905162338 30 226 6.4 9.7 0.00 0.00 0.00 57 1015.6
20260905161832 28 333 4.8 4.8 0.00 0.00 0.00 60 1015.4
20260905161332 27 152 4.8 4.8 0.00 0.00 0.00 68 1015.4
20260905160830 27 97 1.6 1.6 0.00 0.00 0.00 71 1015.2
20260905160325 26 306 1.6 1.6 0.00 0.00 0.00 71 1015.4
20260905155820 26 131 1.6 1.6 0.00 0.00 0.00 70 1015.4
20260905155319 27 113 3.2 4.8 0.00 0.00 0.00 67 1015.6
20260905154813 27 81 1.6 3.2 0.00 0.00 0.00 64 1015.5
20260905154308 28 249 3.2 3.2 0.00 0.00 0.00 61 1015.6
20260905153804 30 294 6.4 11.3 0.00 0.00 0.00 62 1015.5
20260905153301 30 282 4.8 6.4 0.00 0.00 0.00 56 1015.6
20260905152800 30 187 4.8 6.4 0.00 0.00 0.00 56 1015.2
20260905152259 29 319 1.6 3.2 0.00 0.00 0.00 57 1015.5
20260905151800 28 200 3.2 6.4 0.00 0.00 0.00 58 1015.5
20260905151256 28 192 3.2 4.8 0.00 0.00 0.00 59 1015.5
20260905150756 28 242 9.7 12.9 0.00 0.00 0.00 59 1015.6
20260905150255 28 16 0.0 1.6 0.00 0.00 0.00 60 1015.4
20260905145753 28 301 3.2 4.8 0.00 0.00 0.00 59 1015.5
20260905145247 27 65 6.4 9.7 0.00 0.00 0.00 63 1015.2
20260905144746 27 81 3.2 3.2 0.00 0.00 0.00 63 1015.5
20260905144242 27 222 6.4 11.3 0.00 0.00 0.00 63 1015.6
20260905143741 27 113 14.5 17.7 0.00 0.00 0.00 62 1015.5
20260905143241 26 256 3.2 3.2 0.00 0.00 0.00 65 1015.5
20260905142739 26 139 3.2 3.2 0.00 0.00 0.00 65 1015.2
20260905142234 26 167 9.7 12.9 0.00 0.00 0.00 64 1015.5
20260905141730 26 231 4.8 6.4 0.00 0.00 0.00 65 1015.5
20260905141226 26 173 8.0 12.9 0.00 0.00 0.00 66 1015.6
20260905140721 26 102 8.0 12.9 0.00 0.00 0.00 67 1015.7
20260905140215 26 159 8.0 11.3 0.00 0.00 0.00 67 1015.6
20260905135715 26 145 8.0 11.3 0.00 0.00 0.00 66 1015.7
20260905135211 25 112 3.2 4.8 0.00 0.00 0.00 69 1016.0
20260905134710 24 300 3.2 4.8 0.00 0.00 0.00 71 1015.8
20260905134209 23 131 16.1 20.9 0.00 0.00 0.00 72 1015.9
20260905133704 24 101 9.7 14.5 0.00 0.00 0.00 72 1015.7
20260905133200 24 109 11.3 14.5 0.00 0.00 0.00 70 1015.9
20260905132658 23 327 6.4 6.4 0.00 0.00 0.00 72 1015.8
20260905132154 24 100 11.3 16.1 0.00 0.00 0.00 71 1015.8
20260905131650 24 202 3.2 3.2 0.00 0.00 0.00 71 1016.0
20260905131150 23 162 12.9 16.1 0.00 0.00 0.00 72 1016.1
20260905130645 24 120 12.9 16.1 0.00 0.00 0.00 72 1016.0
20260905130144 23 171 6.4 6.4 0.00 0.00 0.00 72 1015.9
20260905125638 23 182 6.4 9.7 0.00 0.00 0.00 73 1015.6
20260905125134 23 125 12.9 16.1 0.00 0.00 0.00 73 1015.4
20260905124630 23 133 4.8 6.4 0.00 0.00 0.00 73 1015.7
20260905124126 23 78 4.8 6.4 0.00 0.00 0.00 73 1015.5
20260905123622 23 98 0.0 1.6 0.00 0.00 0.00 75 1015.7
20260905123119 23 144 9.7 16.1 0.00 0.00 0.00 74 1015.7
20260905122618 23 84 8.0 16.1 0.00 0.00 0.00 75 1015.5
20260905122118 23 135 11.3 14.5 0.00 0.00 0.00 75 1015.5
20260905121613 22 190 3.2 4.8 0.00 0.00 0.00 76 1015.7
20260905121109 22 125 6.4 9.7 0.00 0.00 0.00 77 1015.5
20260905120608 22 109 11.3 14.5 0.00 0.00 0.00 78 1015.6
20260905115602 22 134 8.0 9.7 0.00 0.00 0.00 79 1015.4
20260905115057 22 168 6.4 9.7 0.00 0.00 0.00 79 1015.4
20260905114556 22 118 6.4 9.7 0.00 0.00 0.00 79 1015.7
20260905114055 22 143 11.3 14.5 0.00 0.00 0.00 79 1015.6
20260905113550 22 68 1.6 3.2 0.00 0.00 0.00 79 1015.5
20260905113045 22 98 17.7 20.9 0.00 0.00 0.00 79 1015.5
20260905112541 22 91 3.2 3.2 0.00 0.00 0.00 79 1015.4
20260905112036 22 168 3.2 4.8 0.00 0.00 0.00 79 1015.3
20260905111531 22 114 9.7 12.9 0.00 0.00 0.00 79 1015.6
20260905111030 22 103 6.4 9.7 0.00 0.00 0.00 79 1015.5
20260905110529 22 104 11.3 14.5 0.00 0.00 0.00 79 1015.4
20260905110025 22 105 11.3 16.1 0.00 0.00 0.00 79 1015.3
20260905105525 22 108 11.3 14.5 0.00 0.00 0.00 79 1015.2
20260905105024 22 136 11.3 12.9 0.00 0.00 0.00 79 1015.3
20260905104520 22 119 6.4 11.3 0.00 0.00 0.00 79 1015.3
20260905104019 22 103 4.8 6.4 0.00 0.00 0.00 79 1015.5
20260905103515 22 73 17.7 22.5 0.00 0.00 0.00 79 1015.5
20260905103011 23 78 14.5 20.9 0.00 0.00 0.00 79 1015.4
20260905102506 23 130 17.7 24.1 0.00 0.00 0.00 80 1015.1
20260905102002 24 96 12.9 14.5 0.00 0.00 0.00 89 1015.0
20260905101500 24 55 6.4 9.7 0.00 0.00 0.00 90 1015.0
20260905100959 24 77 1.6 3.2 0.00 0.00 0.00 91 1014.2
20260905100455 25 25 1.6 1.6 0.00 0.00 0.00 89 1014.1
20260905095954 25 350 0.0 0.0 0.00 0.00 0.00 88 1014.2
20260905095449 25 353 0.0 0.0 0.00 0.00 0.00 88 1014.2
20260905094945 25 354 0.0 1.6 0.00 0.00 0.00 88 1014.1
20260905094440 25 12 0.0 1.6 0.00 0.00 0.00 89 1014.1
20260905093939 25 6 0.0 0.0 0.00 0.00 0.00 89 1014.1
20260905093434 25 358 0.0 1.6 0.00 0.00 0.00 89 1013.8
20260905092930 25 333 0.0 0.0 0.00 0.00 0.00 89 1014.0
20260905092425 25 355 0.0 0.0 0.00 0.00 0.00 89 1014.1
20260905091920 25 329 0.0 0.0 0.00 0.00 0.00 89 1014.0
20260905091420 25 4 0.0 0.0 0.00 0.00 0.00 88 1013.8
20260905090920 25 49 1.6 1.6 0.00 0.00 0.00 87 1014.0
20260905090415 25 4 0.0 0.0 0.00 0.00 0.00 87 1013.9
20260905085915 25 331 0.0 0.0 0.00 0.00 0.00 87 1014.0
20260905085414 25 3 0.0 0.0 0.00 0.00 0.00 88 1013.9
20260905084910 25 357 0.0 0.0 0.00 0.00 0.00 89 1014.0
20260905084409 25 356 0.0 0.0 0.00 0.00 0.00 89 1014.1
20260905083904 25 342 0.0 0.0 0.00 0.00 0.00 88 1014.0
20260905083400 25 359 0.0 0.0 0.00 0.00 0.00 87 1014.0
20260905082855 25 348 0.0 0.0 0.00 0.00 0.00 85 1014.0
20260905082351 26 328 0.0 0.0 0.00 0.00 0.00 84 1013.9
20260905081846 26 323 0.0 0.0 0.00 0.00 0.00 84 1013.9
20260905081341 26 322 0.0 0.0 0.00 0.00 0.00 84 1014.0
20260905080841 25 342 0.0 0.0 0.00 0.00 0.00 85 1013.9
20260905080341 25 1 0.0 0.0 0.00 0.00 0.00 85 1013.8
20260905075840 26 1 0.0 1.6 0.00 0.00 0.00 84 1013.9
20260905075339 25 356 0.0 0.0 0.00 0.00 0.00 84 1013.6
20260905074839 26 333 0.0 0.0 0.00 0.00 0.00 84 1013.6
20260905074335 26 319 0.0 0.0 0.00 0.00 0.00 83 1013.5
20260905073830 26 325 0.0 0.0 0.00 0.00 0.00 83 1013.3
20260905073325 26 303 1.6 1.6 0.00 0.00 0.00 82 1013.3
20260905072820 26 296 1.6 1.6 0.00 0.00 0.00 82 1013.1
20260905072315 26 271 1.6 1.6 0.00 0.00 0.00 82 1012.9
20260905071811 26 298 1.6 1.6 0.00 0.00 0.00 82 1012.9
20260905071307 26 314 0.0 0.0 0.00 0.00 0.00 82 1012.9
20260905070801 26 311 0.0 0.0 0.00 0.00 0.00 82 1013.3
20260905070259 26 311 0.0 1.6 0.00 0.00 0.00 83 1013.2
20260905065757 25 299 1.6 1.6 0.00 0.00 0.00 84 1013.3
20260905065256 25 298 1.6 1.6 0.00 0.00 0.00 84 1013.3
20260905064752 26 324 0.0 0.0 0.00 0.00 0.00 83 1013.4
20260905064247 26 324 0.0 0.0 0.00 0.00 0.00 82 1013.5
20260905063745 26 314 1.6 1.6 0.00 0.00 0.00 81 1013.6
20260905063242 26 321 0.0 0.0 0.00 0.00 0.00 81 1013.6
20260905062737 26 302 1.6 1.6 0.00 0.00 0.00 81 1013.8
20260905062237 26 257 1.6 1.6 0.00 0.00 0.00 81 1013.9
20260905061732 26 307 1.6 1.6 0.00 0.00 0.00 81 1013.9
20260905061227 26 311 1.6 1.6 0.00 0.00 0.00 81 1013.9